Regional Weather Roundup
Issued by NWS

Home | Current Version | Previous Version | Graphics & Text | Print | Product List | Glossary On
Versions: 1 2 3 4 5 6 7 8 9 10 11 12 13 14 15 16 17 18 19 20 21 22 23 24 25 26 27 28 29 30 31 32 33 34 35 36 37 38 39 40 41 42 43 44 45 46 47 48 49 50
000
ASUS43 KIND 262359
RWRIN

WEATHER ROUNDUP FOR INDIANA
NATIONAL WEATHER SERVICE INDIANAPOLIS IN
700 PM EST FRI DEC 26 2014

NOTE: "FAIR" INDICATES FEW OR NO CLOUDS BELOW 12,000 FEET WITH NO
SIGNIFICANT WEATHER AND/OR OBSTRUCTIONS TO VISIBILITY.

* - STATION DOES NOT REPORT WEATHER SUCH AS PRECIPITATION OR FOG.

+ - STATION NOT QUALITY CONTROLLED BY THE NATIONAL WEATHER SERVICE.
    USE DATA WITH CAUTION...ESPECIALLY DEWPOINT AND RELATIVE
    HUMIDITY OBSERVATIONS.

INZ001>003-010>013-019-020-270100-
NORTHWEST INDIANA

CITY           SKY/WX    TMP DP  RH WIND       PRES   REMARKS
GARY /AIRPORT/ CLOUDY    52  39  62 S10       30.04R
KNOX *+        CLOUDY    47  38  69 S12       30.06R
VALPARAISO     NOT AVBL

$$

LMZ046-743>745-270100-
SOUTHERN LAKE MICHIGAN

STATION/POSITION TIME  TEMP WIND        PRES
                       AIR  DIR/SP/G
                 (UTC) (F)  (DEG/KT/KT) (MB)
MICHIGAN CITY    2300   49  160/ 10/ 12   N/A

$$

INZ004-005-014>016-021>024-270100-
NORTH CENTRAL INDIANA

CITY           SKY/WX    TMP DP  RH WIND       PRES   REMARKS
ELKHART        CLOUDY    46  37  71 S6        30.07R
GOSHEN         CLOUDY    47  40  76 S9        30.07R
6HR MIN TEMP:  46; 6HR MAX TEMP:  49;

SOUTH BEND     CLOUDY    48  41  76 S8        30.07R
6HR MIN TEMP:  47; 6HR MAX TEMP:  51;

WARSAW +       PTCLDY    43  39  87 S3        30.08S

$$

INZ006>009-017-018-025>027-270100-
NORTHEAST INDIANA

CITY           SKY/WX    TMP DP  RH WIND       PRES   REMARKS
ANGOLA *+      CLEAR     41  37  87 S3        30.08S
FORT WAYNE     MOCLDY    42  38  85 S9        30.11R
6HR MIN TEMP:  42; 6HR MAX TEMP:  48;


$$

INZ028-029-035-036-043>045-051>053-270100-
WEST CENTRAL INDIANA

CITY           SKY/WX    TMP DP  RH WIND       PRES   REMARKS
GREENCASTLE +  MOCLDY    46  37  71 S6        30.11R
LAFAYETTE      PTCLDY    44  39  82 S5        30.08S
6HR MIN TEMP:  44; 6HR MAX TEMP:  51;

TERRE HAUTE    MOCLDY    48  41  76 S9        30.10S
6HR MIN TEMP:  47; 6HR MAX TEMP:  52;


$$

INZ030>032-037>040-046>048-054>057-064-065-270100-
CENTRAL INDIANA

CITY           SKY/WX    TMP DP  RH WIND       PRES   REMARKS
CP ATTERBURY + PTCLDY    45  37  76 MISG      30.14R
COLUMBUS       PTCLDY    45  37  76 S8        30.14R
INDIANAPOLIS   MOCLDY    45  39  79 S9        30.11R
6HR MIN TEMP:  45; 6HR MAX TEMP:  52;

-EAGLE CREEK   MOCLDY    46  40  79 S3        30.11R
6HR MIN TEMP:  46; 6HR MAX TEMP:  52;

KOKOMO *+      MOCLDY    45  39  81 SW9       30.10R
MT COMFORT *+  PTCLDY    45  36  70 S7        30.13R
SHELBYVILLE    PTCLDY    47  39  74 S9        30.13R
6HR MIN TEMP:  47; 6HR MAX TEMP:  53;


$$

INZ033-034-041-042-049-050-058-059-270100-
EAST CENTRAL INDIANA

CITY           SKY/WX    TMP DP  RH WIND       PRES   REMARKS
MUNCIE         MOCLDY    46  39  76 S10       30.12R
6HR MIN TEMP:  46; 6HR MAX TEMP:  50;


$$

INZ060-061-067>069-081>083-085>088-270100-
SOUTHWEST INDIANA

CITY           SKY/WX    TMP DP  RH WIND       PRES   REMARKS
EVANSVILLE     PTCLDY    53  41  63 S8        30.14F
6HR MIN TEMP:  53; 6HR MAX TEMP:  58;

HUNTINGBURG *+ PTCLDY    48  37  66 S7        30.16S
6HR MIN TEMP:  48; 6HR MAX TEMP:  55;


$$

INZ062-063-066-070>080-084-089>092-270100-
SOUTH CENTRAL AND SOUTHEAST INDIANA

CITY           SKY/WX    TMP DP  RH WIND       PRES   REMARKS
BLOOMINGTON    MOCLDY    48  40  73 S8        30.12S
6HR MIN TEMP:  46; 6HR MAX TEMP:  54;

SEYMOUR +      MOCLDY    48  37  66 S6        30.15

$$



USA.gov is the U.S. government's official web portal to all federal, state and local government web resources and services.